Location: Staunton
(38.1490°N, 79.0720°W)
Time: 00:52:06
(UTC-05:00)

ISS - Pass Details

Date: 16 January 2021
Orbit: 418 x 421 km, 51.6° (Epoch: 23 January)

Event Time Altitude Azimuth Distance (km) Brightness Sun altitude
Rises 18:45:57 0° 202° (SSW) 2,351 0.6 -16.4°
Reaches altitude 10° 18:48:17 10° 188° (S) 1,493 -0.7 -16.8°
Enters shadow 18:50:43 24° 141° (SE) 925 -2.3 -17.3°
